Probability
0 0 0 0 0 0 0 0 0 0 0 0 0 0 0 0 0 0 0 0 0 0 0 0 0 0 0 0 0 0 0 0 0 0 0 0 0 0 0 0 0 0 0
0 0 0 0 0 0 0 0 0 0 0 0 0 0 0 0 0 0 0 0 0 0 0 0 0 0 0 0 0 0 0 0 0 0 0 0 0 0 0 0 0 0 0
0 0 0 0 0 0 0 0 0 0 0 0 0 0 0 0 0 0 0 0 0 0 0 0 0 0 0 0 0 0 0 0 0 0 0 0 0 0 0 0 0 0 0
0 0 0 0 0 0 0 0 0 0 0 0 0 0 0 0 0 0 0 0 0 0 0 0 0 0 0 0 0 0 0 0 0 0 0 0 0 0 0 0 0 0 0
0 0 0 0 0 0 0 0 0 0 0 0 0 0 0 0 0 0 0 0 0 0 0 0 0 0 0 0 0 0 0 0 0 0 0 0 0 0 0 0 0 0 0
0 0 0 0 0 0 0 0 0 0 0 0 0 0 0 0 0 0 0 0 0 0 0 0 0 0 0 0 0 0 0 0 0 0 0 0 0 0 0 0 0 0 0
0 0 0 0 0 0 0 0 0 0 0 0 0 0 0 0 0 0 0 0 0 0 0 0 0 0 0 0 0 0 0 0 0 0 0 0 0 0 0 0 0 0 0
0 0 0 0 0 0 0 0 0 0 0 0 0 0 0 0 0 0 0 0 0 0 0 0 0 0 0 0 0 0 0 0 0 0 0 0 0 0 0 0 0 0 0
0 0 0 0 0 0 0 0 0 0 0 0 0 0 0 0 0 0 0 0 0 0 0 0 0 0 0 0 0 0 0 0 0 0 0 0 0 0 0 0 0 0 0
0 0 0 0 0 0 0 0 0 0 0 0 0 0 0 0 0 0 0 0 0 0 0 0 0 0 0 0 0 0 0 0 0 0 0 0 0 0 0 0 0 0 0
0 0 0 0 0 0 0 0 0 0 0 0 0 0 0 0 0 0 0 0 0 0 0 0 0 0 0 0 0 0 0 0 0 0 0 0 0 0 0 0 0 0 0
0 0 0 0 0 0 0 0 0 0 0 0 0 0 0 0 0 0 0 0 0 0 0 0 0 0 0 0 0 0 0 0 0 0 0 0 0 0 0 0 0 0 0
0 0 0 0 0 0 0 0 0 0 0 0 0 0 0 0 0 0 0 0 0 0 0 0 0 0 0 0 0 0 0 0 0 0 0 0 0 0 0 0 0 0 0
0 0 0 0 0 0 0 0 0 0 0 0 0 0 0 0 0 0 0 0 0 0 0 0 0 0 0 0 0 0 0 0 0 0 0 0 0 0 0 0 0 0 0
0 0 0 0 0 0 0 0 0 0 0 0 0 0 0 0 0 0 0 0 0 0 0 0 0 0 0 0 0 0 0 0 0 0 0 0 0 0 0 0 0 0 0
0 0 0 0 0 0 0 0 0 0 0 0 0 0 0 0 0 0 0 0 0 0 0 0 0 0 0 0 0 0 0 0 0 0 0 0 0 0 0 0 0 0 0
0 0 0 0 0 0 0 0 0 0 0 0 0 0 0 0 0 0 0 0 0 0 0 0 0 0 0 0 0 0 0 0 0 0 0 0 0 0 0 0 0 0 0
0 0 0 0 0 0 0 0 0 0 0 0 0 0 0 0 0 0 0 0 0 0 0 0 0 0 0 0 0 0 0 0 0 0 0 0 0 0 0 0 0 0 0
0 0 0 0 0 0 0 0 0 0 0 0 0 0 0 0 0 0 0 0 0 0 0 0 0 0 0 0 0 0 0 0 0 0 0 0 0 0 0 0 0 0 0
0 0 0 0 0 0 0 0 0 0 0 0 0 0 0 0 0 0 0 0 0 0 0 0 0 0 0 0 0 0 0 0 0 0 0 0 0 0 0 0 0 0 0
0 0 0 0 0 0 0 0 0 0 0 0 0 0 0 0 0 0 0 0 0 0 0 0 0 0 0 0 0 0 0 0 0 0 0 0 0 0 0 0 0 0 0
0 0 0 0 0 0 0 0 0 0 0 0 0 0 0 0 0 0 0 0 0 0 0 0 0 0 0 0 0 0 0 0 0 0 0 0 0 0 0 0 0 0 0
0 0 0 0 0 0 0 0 0 0 0 0 0 0 0 0 0 0 0 0 0 0 0 0 0 0 0 0 0 0 0 0 0 0 0 0 0 0 0 0 0 0 0
0 0 0 0 0 0 0 0 0 0 0 0 0 0 0 0 0 0 0 0 0 0 0 0 0 0 0 0 0 0 0 0 0 0 0 0 0 0 0 0 0 0 0
0 0 0 0 0 0 0 0 0 0 0 0 0 0 0 0 0 0 0 0 0 0 0 0 0 0 0 0 0 0 0 0 0 0 0 0 0 0 0 0 0 0 0
0 0 0 0 0 0 0 0 0 0 0 0 0 0 0 0 0 0 0 0 0 0 0 0 0 0 0 0 0 0 0 0 0 0 0 0 0 0 0 0 0 0 0
Wind_Speed
5 7 8 9 9 10 11 11 12 11 8 6 5 7 8 9 10 11 14 15 14 13 12 9 9 8 6 5 4 2 3 3 2 3 4 3 4 4 4 3 3 4 4
5 7 8 9 10 10 10 10 11 10 10 6 5 5 5 7 7 9 12 14 14 14 11 12 9 9 7 9 7 5 3 3 3 2 3 5 5 4 2 2 2 2 2
4 5 7 8 8 9 9 8 9 10 10 8 6 6 5 5 7 9 10 12 13 13 13 12 10 10 9 8 9 7 5 3 3 2 2 3 4 5 3 2 1 2 3
3 3 5 6 7 7 6 7 9 11 10 9 11 13 10 9 6 5 6 9 12 13 12 12 11 11 9 10 9 9 5 4 3 3 2 1 2 3 6 4 3 3 4
4 4 3 4 5 5 6 6 9 11 10 10 11 12 11 7 5 5 9 9 9 11 12 11 10 10 9 10 10 9 9 6 4 3 3 2 2 2 4 7 5 4 3
5 4 3 3 4 5 5 6 9 11 9 10 11 12 12 9 9 9 8 7 6 8 11 10 9 9 8 9 8 8 8 8 6 5 4 3 3 3 3 6 9 9 5
6 5 4 4 3 4 4 5 8 9 8 9 10 9 9 9 9 7 6 6 5 6 8 8 7 7 7 7 7 7 7 7 6 5 4 3 3 3 4 6 8 10 7
6 6 6 5 4 4 4 5 6 7 6 7 7 7 7 6 5 6 5 5 4 4 5 5 6 6 6 7 6 5 5 5 5 6 5 4 4 3 3 3 5 9 7
8 8 7 6 6 6 5 5 6 6 6 6 6 6 6 6 6 5 4 3 3 3 5 5 5 5 5 5 5 4 5 5 4 5 5 4 4 4 4 4 4 4 8
8 8 7 7 7 6 5 5 5 6 5 5 5 5 5 5 5 4 5 4 4 4 4 5 5 5 5 5 5 4 5 5 5 5 6 6 5 5 5 5 5 5 6
10 9 8 8 7 6 6 5 5 5 5 4 4 5 4 4 4 3 3 3 3 3 4 4 5 5 5 5 5 6 6 7 7 6 7 8 7 7 5 5 6 7 7
9 8 8 8 8 7 7 7 6 6 5 5 4 4 4 3 3 2 1 1 2 2 3 3 4 5 5 5 6 8 7 7 9 9 9 10 8 8 7 7 8 8 8
8 7 8 9 9 9 8 7 7 7 6 5 5 5 4 3 3 2 1 0 1 2 2 3 4 5 5 6 7 7 8 8 10 10 12 12 11 12 9 9 10 9 10
7 7 8 9 9 9 8 8 8 7 6 6 6 6 5 4 3 2 1 0 1 2 3 4 4 5 6 8 8 9 10 11 11 11 11 12 12 13 12 12 11 10 11
6 8 9 9 8 8 8 8 8 7 7 7 7 6 5 4 3 2 1 1 2 3 4 5 5 6 6 6 10 12 12 13 14 13 12 13 16 20 18 15 12 12 11
6 7 7 8 9 9 9 8 8 8 7 7 7 6 5 4 3 2 1 2 3 4 5 5 6 7 7 15 19 16 13 14 15 15 14 14 15 18 22 24 24 22 17
6 7 7 8 8 9 9 10 9 7 7 7 6 6 5 4 3 1 2 3 4 5 5 6 7 9 11 18 20 21 16 15 14 15 15 13 12 14 15 19 23 21 24
6 6 6 7 7 7 7 7 5 6 7 7 7 6 5 4 2 1 1 3 3 4 6 7 8 10 12 19 22 22 15 13 14 14 15 16 16 15 18 17 17 17 16
7 7 7 6 5 6 6 5 5 6 7 8 7 7 5 4 2 1 1 2 3 5 6 7 7 9 13 19 22 21 12 11 14 14 15 16 16 22 26 20 17 18 17
6 6 5 4 5 6 5 6 7 7 9 8 7 6 5 3 2 1 1 2 3 5 7 8 7 9 11 18 21 21 9 11 12 12 14 18 22 26 28 20 17 19 18
8 7 6 6 7 5 6 7 7 9 6 5 6 5 3 2 1 1 1 2 4 6 6 9 9 9 11 16 20 21 11 11 12 12 12 13 25 29 30 28 20 24 25
8 7 6 7 6 6 7 8 8 5 6 6 5 4 2 1 1 1 2 3 4 6 7 8 9 7 9 12 17 22 22 21 15 13 13 15 28 32 33 27 27 33 29
9 7 8 8 5 6 7 9 5 7 7 5 4 3 2 2 2 2 3 3 3 4 6 6 8 8 7 10 19 21 24 25 17 14 23 28 32 31 23 25 31 25 15
9 7 7 8 8 6 6 5 6 7 6 5 4 3 3 3 3 3 3 4 4 5 6 7 8 9 9 8 8 9 12 16 16 14 17 24 25 23 22 18 16 11 11
8 7 8 10 9 6 6 6 7 7 6 5 4 3 3 3 3 4 4 6 7 8 8 8 8 9 9 11 21 17 12 12 13 15 9 9 10 11 10 11 11 11 11
7 6 8 8 6 7 7 6 6 6 6 4 4 4 3 3 3 4 5 10 12 16 18 18 14 9 14 21 22 23 24 24 23 13 7 9 10 11 12 12 13 13 12
Wind_Direction
16 14 10 6 11 18 27 31 38 32 38 47 51 55 52 44 45 43 37 36 35 34 38 36 34 33 41 39 38 42 42 32 6 335 318 302 271 268 279 284 292 304 311
26 19 16 17 19 19 21 31 37 39 44 56 66 78 84 60 55 48 44 39 39 37 38 37 36 31 36 36 31 30 30 30 28 14 337 331 333 347 335 299 264 281 297
59 28 21 19 19 24 21 35 40 46 46 54 75 77 65 58 47 42 43 38 40 42 41 40 40 36 35 31 24 20 30 13 9 23 4 342 319 320 311 331 316 283 276
87 58 38 30 24 18 20 39 50 54 49 55 74 79 78 74 55 50 49 44 42 42 41 40 41 41 38 33 25 23 17 22 9 358 14 261 274 302 312 313 315 308 288
130 102 71 53 36 24 31 43 59 60 55 61 73 84 83 81 69 56 52 45 39 38 37 37 38 37 35 33 29 26 27 25 18 2 342 334 296 246 280 299 313 317 289
155 137 111 83 58 42 43 51 69 65 58 67 71 81 86 82 72 58 51 43 37 34 31 34 35 33 30 27 24 23 25 21 18 10 5 352 332 328 302 296 306 302 291
169 165 153 127 99 75 64 66 78 75 66 73 75 78 82 80 76 69 58 50 40 32 23 27 28 28 23 22 18 20 16 13 8 2 350 337 316 305 300 298 302 301 298
185 184 177 161 146 129 110 98 94 92 84 83 82 79 82 83 79 71 69 60 49 38 19 23 26 23 20 19 13 14 4 357 350 344 333 318 309 307 301 294 304 307 302
196 193 184 176 171 163 155 141 123 111 104 101 98 89 85 84 82 76 68 60 43 31 20 18 18 14 10 7 2 356 342 334 328 318 311 304 300 299 293 286 278 281 299
203 198 189 184 182 177 165 153 138 131 128 120 112 105 96 93 92 81 65 52 34 21 11 10 7 1 357 353 346 332 321 320 314 307 303 300 297 295 288 285 280 263 265
206 201 191 186 182 175 170 164 158 148 146 142 131 122 114 105 95 82 66 46 24 10 4 355 349 343 340 337 330 321 317 316 310 304 299 293 291 288 285 282 278 273 265
207 195 185 181 182 184 184 182 177 174 174 166 155 150 145 135 121 107 82 40 8 350 340 334 331 329 330 322 317 313 315 306 306 306 301 297 296 287 283 279 276 274 267
208 195 187 189 191 192 191 191 191 192 186 175 170 170 170 167 164 159 152 5 331 325 335 334 327 323 320 315 308 301 304 301 299 300 299 300 300 296 292 283 281 278 277
211 202 199 199 196 195 195 196 202 199 190 182 183 188 189 184 177 169 161 263 334 340 344 337 328 324 321 316 312 315 310 303 299 298 297 297 296 296 296 291 284 283 281
214 208 205 202 199 199 202 203 207 203 191 187 193 197 186 176 167 156 132 20 5 353 339 334 331 328 319 314 319 317 310 307 304 302 300 297 297 296 294 290 290 290 285
219 212 206 200 201 204 206 207 212 208 190 193 198 185 178 174 161 126 45 7 355 345 337 332 325 321 319 317 318 317 311 307 304 304 304 300 293 292 294 294 292 289 286
206 204 203 203 205 206 206 210 215 201 189 195 189 181 179 173 146 83 20 357 341 333 328 320 319 312 308 313 316 316 311 303 300 299 298 297 296 295 290 289 289 288 285
191 197 200 206 212 211 212 215 206 192 192 192 186 180 175 168 145 83 356 335 323 322 315 311 306 301 302 312 315 313 307 298 294 293 293 292 292 290 289 287 284 282 280
192 196 199 200 206 212 208 196 200 194 192 194 187 176 170 167 165 274 309 308 307 307 301 294 296 297 301 308 309 308 301 295 294 292 288 287 286 286 288 287 283 281 278
197 200 202 199 216 223 188 189 205 199 205 195 173 157 158 168 195 247 286 285 297 294 296 295 295 291 290 297 304 306 297 293 291 289 285 283 285 286 288 285 281 279 277
212 209 203 210 223 207 177 202 208 213 198 149 140 146 151 162 200 256 271 291 294 294 292 292 290 283 282 291 299 302 297 290 291 291 291 288 291 290 289 286 280 277 279
223 214 210 226 224 189 183 208 217 189 137 138 146 155 157 179 190 259 278 279 284 291 289 289 291 282 280 285 294 300 301 300 296 294 292 289 291 292 292 291 285 287 288
226 219 214 229 223 190 188 210 197 142 142 148 166 179 197 222 231 247 269 273 264 272 284 287 291 293 287 286 298 302 302 301 298 291 292 296 299 301 300 297 297 297 289
231 225 213 221 226 198 191 190 151 144 147 171 189 199 219 242 237 242 246 247 249 257 266 273 279 285 288 289 293 290 295 300 300 296 297 305 309 309 308 306 303 296 290
232 219 212 220 222 182 172 154 145 145 160 181 199 215 222 235 255 254 242 250 236 234 248 254 257 280 295 299 306 310 309 307 306 319 327 325 319 313 311 309 306 302 297
228 217 215 217 203 167 165 155 152 156 167 190 206 213 220 229 243 260 275 274 275 277 278 282 287 294 298 307 314 317 320 327 332 340 330 317 314 312 312 311 310 307 302